Location: Syracuse
(43.0480°N, 76.1480°W)
Time: 06:05:38
(UTC-04:00)

Daily predictions for brighter satellites

Satellite Brightness Start Highest point End
(mag) Time Altitude Azimuth Time Altitude Azimuth Time Altitude Azimuth
SL-16 R/B 4.3 21:05:00 10° WSW 21:10:04 33° NW 21:15:10 10° N
BREEZE-M DEB (TANK) 3.4 21:08:45 10° WNW 21:11:11 27° SW 21:13:04 10° SSE
YAOGAN 6 4.5 21:10:11 10° ESE 21:12:46 18° ENE 21:15:22 10° NNE
GRACE-1 4.1 21:11:22 10° N 21:14:13 55° E 21:17:01 10° S
GRACE-2 4.1 21:11:48 10° N 21:14:39 56° E 21:17:27 10° S
SJ-11-01 4.3 21:10:56 10° SSE 21:15:36 88° ENE 21:20:19 10° NNW
Envisat 3.2 21:18:04 10° SSE 21:23:03 61° ENE 21:28:04 10° N
GEOS 3 Rocket 3.8 21:19:00 10° SSE 21:24:16 74° SW 21:29:31 10° NW
Cosmos 407 Rocket 4.0 21:20:49 10° SSE 21:25:38 38° ESE 21:30:26 10° NE
Cosmos 2263 4.5 21:26:22 10° NNW 21:31:55 57° ENE 21:37:05 12° SE
Cosmos 1515 3.6 21:30:29 10° S 21:34:19 76° E 21:38:11 10° NNE
CZ-2C R/B 2.8 21:32:58 10° SSW 21:34:50 22° W 21:36:43 10° NW
MetOp-A 4.4 21:31:40 10° SSE 21:36:53 56° ENE 21:42:08 10° N
SL-27 R/B 4.2 21:36:56 13° ESE 21:37:59 15° E 21:40:00 10° ENE
UNK 4.5 21:33:01 10° NNE 21:38:24 51° ESE 21:44:01 10° S
Cosmos 1825 Rocket 3.6 21:35:07 10° S 21:39:29 60° E 21:43:51 10° NNE
Cosmos 1066 Rocket 4.3 21:36:48 10° S 21:42:25 64° E 21:48:13 10° NNE
COSMOS 2406 4.5 21:39:25 12° SE 21:43:08 22° E 21:47:23 10° NE
Cosmos 1943 Rocket 2.9 21:40:43 10° NNW 21:45:59 41° ENE 21:50:21 14° SE
Cosmos 1812 Rocket 4.5 21:42:04 10° NNW 21:46:18 48° W 21:50:34 10° SSW
Lacrosse 4 Rocket 1.2 21:44:30 10° SSW 21:48:31 79° ESE 21:52:39 10° NNE
Cosmos 2084 4.1 21:49:57 10° NNW 21:53:53 43° NE 21:56:59 16° ESE
Atlas Centaur 2 3.7 21:49:06 10° WSW 21:55:06 30° S 22:00:12 16° SE
SeaSat 1 2.5 21:52:49 16° SE 21:56:49 74° ENE 22:01:46 10° NNW
Meteor 1-22 Rocket 4.3 21:51:27 10° N 21:57:06 75° E 22:02:15 14° SSE
Cosmos 1943 3.4 21:53:00 10° SSW 21:58:41 75° WNW 22:04:24 10° NNE
H-2A R/B 3.6 21:55:05 10° SSW 21:58:59 34° W 22:03:01 10° NNW
ISS -1.2 21:56:05 10° W 21:59:00 29° NNW 22:01:56 10° NE
CZ-4C R/B 4.4 22:00:19 19° ESE 22:02:40 33° ENE 22:06:14 10° N
SL-23 DEB 4.4 22:00:48 10° SW 22:07:30 63° SE 22:11:25 10° ENE
USA 81 4.3 22:06:46 10° N 22:12:02 68° W 22:17:13 10° S
CZ-4B R/B 3.5 22:08:05 10° NNE 22:13:15 83° ESE 22:18:30 10° SSW
CZ-4 R/B 4.0 22:09:13 10° NNE 22:14:10 59° ESE 22:18:13 15° S
Cosmos 1953 3.1 22:11:43 10° N 22:15:27 37° ENE 22:17:07 25° SE
Lacrosse 5 rocket 4.4 22:14:41 10° NNW 22:16:13 12° N 22:17:45 10° NNE
PSLV R/B 3.6 22:16:30 10° W 22:19:58 52° S 22:21:15 32° SE
Terra 2.7 22:19:02 21° ESE 22:21:28 35° ENE 22:25:47 10° N
ARGOS 3.1 22:18:01 20° SSE 22:21:49 80° ENE 22:27:17 10° NNW
ATLAS 3B R/B 3.2 22:15:53 10° SW 22:23:35 72° NW 22:31:06 10° NNE
Cosmos 1346 Rocket 3.5 22:20:25 10° SSW 22:24:13 52° WNW 22:28:06 10° N
SPOT 5 3.9 22:21:03 10° SSW 22:25:03 36° W 22:29:03 10° NNW
USA 245 4.1 22:21:18 17° S 22:25:40 76° WSW 22:30:25 10° NNW
Cosmos-2242 3.1 22:21:28 10° N 22:25:51 62° E 22:28:01 28° SSE
Cosmos 1842 3.2 22:25:37 25° S 22:27:46 70° E 22:31:40 10° NNE
Cosmos 1953 Rocket 4.3 22:23:54 10° SSW 22:28:13 54° W 22:32:36 10° N
Cosmos 1140 Rocket 3.6 22:26:31 20° S 22:30:03 54° ESE 22:35:09 10° NNE
Cosmos 1570 Rocket 4.3 22:26:11 10° NNW 22:31:29 59° ENE 22:34:19 27° SE
H-2A R/B 2.3 22:33:42 27° SE 22:36:11 53° ENE 22:41:10 10° N
NOSS 3-2 (A) 4.3 22:35:29 25° SE 22:36:53 27° ESE 22:42:12 10° NE
Lacrosse 5 4.3 22:33:55 10° NNW 22:37:32 19° NNE 22:41:08 10° ENE
Meteor 1-21 4.4 22:32:05 10° SSW 22:37:51 76° W 22:43:44 10° N
SL-8 R/B 3.8 22:33:23 10° WNW 22:38:15 78° NNE 22:41:05 25° ESE
Cosmos 1607 4.0 22:32:57 10° SSW 22:38:59 54° ESE 22:45:02 10° NE
Cosmos 2369 Rocket 3.6 22:35:21 10° NW 22:40:11 30° WSW 22:44:34 12° SSW
USA 234 3.3 22:37:09 23° SE 22:41:35 86° NE 22:48:12 10° NW
SPOT 1/Viking Rocket 4.2 22:41:55 18° S 22:45:30 50° W 22:50:31 10° NNW
Cosmos 2279 Rocket 4.2 22:39:32 10° NNW 22:45:46 69° W 22:50:14 20° S
YAOGAN 6 4.1 22:43:54 17° SSW 22:46:07 32° W 22:49:32 10° NNW
Cosmos 1932 4.5 22:41:56 10° SW 22:48:06 81° WNW 22:54:24 10° NNE
Cosmos 614 Rocket 4.2 22:48:02 32° SSE 22:50:07 51° ESE 22:55:10 10° NNE
SL-08 RB Rocket 4.1 22:51:28 27° S 22:53:46 57° W 22:58:13 10° NNW
Spot 2 4.4 22:53:42 10° NNE 22:58:35 64° ESE 23:00:35 35° S
SAR-Lupe-2 3.4 22:58:16 56° S 22:58:58 88° WSW 23:02:35 10° NNW
Cosmos 1340 3.4 23:00:50 37° E 23:00:50 37° E 23:04:19 10° NNE
Cosmos 1544 3.3 22:57:44 10° N 23:01:28 55° E 23:01:55 51° ESE
Meteor 2-5 Rocket 4.2 23:00:28 33° SE 23:02:24 44° E 23:07:50 10° NNE
CARTOSAT-1 3.5 23:02:00 43° S 23:03:24 85° W 23:07:45 10° NNW
Cosmos 1758 3.7 23:00:08 10° NNW 23:04:13 60° W 23:05:36 37° SSW
CZ-4C R/B 2.7 23:03:35 35° SE 23:04:18 36° ESE 23:09:37 10° NE
Okean 3 Rocket 3.9 23:08:05 42° ESE 23:08:40 45° E 23:12:54 10° NNE
USA 238 DEB 3.9 23:04:02 10° SW 23:11:08 77° NW 23:18:13 10° NE
USA 238 3.9 23:04:07 10° SW 23:11:13 78° NW 23:18:19 10° NE
SL-27 R/B 4.3 23:10:37 13° WSW 23:13:02 28° WNW 23:15:59 10° N
DMSP B5D2-2 4.0 23:10:26 10° NNE 23:15:45 88° ESE 23:18:08 34° SSW
Cosmos 1470 2.6 23:15:07 10° N 23:19:01 69° E 23:19:20 65° ESE
Cosmos 1805 4.1 23:15:42 10° NNW 23:19:28 44° W 23:20:29 35° SW
IGS 5A 3.6 23:19:53 48° SSW 23:20:49 63° W 23:24:57 10° NNW
COSMOS 2487 2.4 23:24:52 75° WSW 23:25:04 79° WNW 23:28:41 10° NNE
COSMOS 2406 3.8 23:21:24 10° SW 23:26:59 57° WNW 23:32:39 10° NNE
Cosmos 1943 Rocket 3.5 23:24:47 10° NW 23:29:32 30° WSW 23:31:53 22° SW
Cosmos 1842 Rocket 4.2 23:27:45 10° NNW 23:31:59 48° W 23:33:08 38° SW
Cosmos 1818 4.0 23:27:06 10° NNW 23:32:30 56° NE 23:34:29 36° ESE
ALOS 2 4.3 23:32:11 20° E 23:33:06 21° ENE 23:36:25 10° NNE
Cosmos 2082 Rocket 3.7 23:34:49 20° E 23:34:49 20° E 23:38:38 10° NE
ISS -0.4 23:33:52 10° NW 23:36:11 18° N 23:38:31 10° NE
Cosmos 1656 Rocket 4.0 23:30:59 10° NNW 23:36:32 55° WSW 23:38:15 39° SSW
NOSS 3-3 (A) 4.5 23:29:08 10° NW 23:36:34 77° NE 23:40:25 34° SE
NOSS 3-3 (C) 4.5 23:29:15 10° NW 23:36:41 77° NE 23:40:32 34° SE
CZ-4B R/B 3.7 23:37:33 17° ENE 23:37:43 17° ENE 23:40:12 10° NNE
H-2A R/B 4.1 23:39:36 10° NE 23:41:37 20° ENE 23:41:37 20° ENE
Atlas Centaur 2 4.2 23:38:17 10° WSW 23:42:50 21° SSW 23:42:50 21° SSW
NOSS 3-2 (C) 3.4 23:43:08 41° S 23:45:18 67° ESE 23:51:54 10° NE
Cosmos 1553 Rocket 4.5 23:39:41 10° N 23:45:52 50° ENE 23:47:54 37° SE
Cosmos 1707 2.8 23:50:19 71° W 23:50:25 72° W 23:54:21 10° N
Cosmos 1378 4.2 23:56:29 37° ENE 23:56:29 37° ENE 23:59:21 10° NNE
Lacrosse 5 rocket 4.1 23:54:08 10° NNW 23:56:58 17° NNE 23:59:54 10° ENE
